Alexander City, AL

5:24 AM CST on December 06, 2019 (GMT -0600)
Russell

Weather History for KALX - October, 2019

Change the Weather History Date:

Thursday, October 24, 2019

  Actual Average (WUND) Record (WUND)
Temperature  
Mean Temperature 58 °F -  
Max Temperature 72 °F - - (-1)
Min Temperature 43 °F - - (-1)
Degree Days  
Heating Degree Days 8    
Growing Degree Days 8 (Base 50)    
Moisture  
Dew Point 47 °F    
Average Humidity 69    
Maximum Humidity 96    
Minimum Humidity 38    
Precipitation  
Precipitation 0.00 in - - ()
Sea Level Pressure  
Sea Level Pressure 30.20 in    
Wind  
Wind Speed 2 mph (NE)    
Max Wind Speed 7 mph    
Max Gust Speed -    
Visibility 10 miles    
Events      
Averages and records for this station are not official NWS values.
T = Trace of Precipitation, MM = Missing Value Source: NWS Daily Summary

Daily Weather History Graph

Daily Weather History Graph

Search for Another Location

Airport or City:

Astronomy

Oct. 24, 2019 Rise Set
Actual Time 6:54 AM CDT 6:00 PM CDT
Civil Twilight 6:29 AM CDT 6:25 PM CDT
Nautical Twilight 6:00 AM CDT 6:54 PM CDT
Astronomical Twilight 5:32 AM CDT 7:23 PM CDT
Moon 2:43 AM CDT (10/24) 4:11 PM CDT (10/24)
Length of Visible Light 11h 56m
Length of Day
11h 05m
Waning Crescent, 16% of the Moon is Illuminated
Oct 24
Waning Crescent
Oct 27
New
Nov 4
First Quarter
Nov 12
Full
Nov 19
Last Quarter

Hourly Weather History & Observations

Time (CDT) Temp. Windchill Dew Point Humidity Pressure Visibility Wind Dir Wind Speed Gust Speed Precip Events Conditions
12:15 AM 44.8 °F - 43.7 °F 96% 30.19 in 10.0 mi Calm Calm - N/A   Clear
12:35 AM 44.8 °F - 43.7 °F 96% 30.19 in 10.0 mi Calm Calm - N/A   Clear
1:00 AM 43.0 °F - 41.5 °F 95% 30.19 in 10.0 mi Calm Calm - N/A   Clear
1:15 AM 43.0 °F - 41.7 °F 95% 30.19 in 10.0 mi Calm Calm - N/A   Clear
1:35 AM 43.7 °F - 42.3 °F 95% 30.18 in 10.0 mi Calm Calm - N/A   Clear
1:55 AM 43.7 °F - 42.3 °F 95% 30.18 in 10.0 mi Calm Calm - N/A   Clear
2:15 AM 45.0 °F - 42.8 °F 92% 30.18 in 10.0 mi Calm Calm - N/A   Clear
2:35 AM 43.2 °F - 41.9 °F 95% 30.18 in 10.0 mi Calm Calm - N/A   Clear
2:55 AM 45.7 °F 44.4 °F 42.4 °F 88% 30.18 in 10.0 mi NNE 3.5 mph - N/A   Clear
3:15 AM 45.1 °F 43.7 °F 42.1 °F 89% 30.18 in 10.0 mi North 3.5 mph - N/A   Clear
3:35 AM 45.1 °F - 41.9 °F 88% 30.18 in 10.0 mi Calm Calm - N/A   Clear
3:55 AM 45.0 °F - 41.5 °F 88% 30.19 in 10.0 mi Calm Calm - N/A   Clear
4:35 AM 44.1 °F - 41.4 °F 90% 30.20 in 10.0 mi Calm Calm - N/A   Clear
4:55 AM 44.2 °F 42.7 °F 41.2 °F 89% 30.20 in 10.0 mi North 3.5 mph - N/A   Clear
5:15 AM 44.6 °F 43.1 °F 41.2 °F 88% 30.21 in 10.0 mi North 3.5 mph - N/A   Clear
5:35 AM 43.9 °F 41.3 °F 41.0 °F 90% 30.21 in 10.0 mi North 4.6 mph - N/A   Clear
5:55 AM 43.7 °F 41.1 °F 41.0 °F 90% 30.21 in 10.0 mi North 4.6 mph - N/A   Clear
6:35 AM 43.3 °F 41.7 °F 40.6 °F 90% 30.21 in 10.0 mi North 3.5 mph - N/A   Clear
6:55 AM 43.2 °F 41.5 °F 40.1 °F 89% 30.21 in 10.0 mi NNE 3.5 mph - N/A   Clear
7:15 AM 43.3 °F 40.7 °F 40.1 °F 88% 30.21 in 10.0 mi North 4.6 mph - N/A   Clear
7:35 AM 43.9 °F 41.3 °F 40.5 °F 88% 30.22 in 10.0 mi North 4.6 mph - N/A   Clear
7:55 AM 45.0 °F 42.6 °F 41.0 °F 86% 30.23 in 10.0 mi North 4.6 mph - N/A   Clear
8:15 AM 47.5 °F - 42.1 °F 82% 30.23 in 10.0 mi NNE 3.5 mph - N/A   Clear
8:35 AM 50.9 °F - 42.8 °F 74% 30.23 in 10.0 mi Calm Calm - N/A   Clear
8:55 AM 54.3 °F - 43.7 °F 67% 30.24 in 10.0 mi East 4.6 mph - N/A   Clear
9:15 AM 54.5 °F - 43.0 °F 65% 30.24 in 10.0 mi ENE 4.6 mph - N/A   Clear
9:35 AM 55.9 °F - 44.1 °F 64% 30.24 in 10.0 mi NE 4.6 mph - N/A   Clear
9:55 AM 57.9 °F - 44.8 °F 62% 30.25 in 10.0 mi NE 3.5 mph - N/A   Clear
10:15 AM 60.8 °F - 45.3 °F 57% 30.26 in 10.0 mi East 3.5 mph - N/A   Clear
10:35 AM 61.3 °F - 45.9 °F 57% 30.25 in 10.0 mi Calm Calm - N/A   Clear
10:55 AM 63.7 °F - 47.1 °F 55% 30.25 in 10.0 mi Calm Calm - N/A   Clear
11:15 AM 64.8 °F - 48.2 °F 55% 30.25 in 10.0 mi Calm Calm - N/A   Clear
11:35 AM 66.2 °F - 48.2 °F 52% 30.24 in 10.0 mi Calm Calm - N/A   Clear
11:55 AM 66.6 °F - 47.8 °F 51% 30.23 in 10.0 mi East 6.9 mph - N/A   Clear
12:15 PM 68.4 °F - 47.5 °F 47% 30.23 in 10.0 mi ESE 5.8 mph - N/A   Clear
12:35 PM 68.5 °F - 47.1 °F 46% 30.22 in 10.0 mi East 6.9 mph - N/A   Clear
12:55 PM 70.3 °F - 47.8 °F 45% 30.21 in 10.0 mi East 3.5 mph - N/A   Clear
1:15 PM 69.8 °F - 45.5 °F 42% 30.20 in 10.0 mi East 5.8 mph - N/A   Clear
1:35 PM 71.4 °F - 45.9 °F 40% 30.19 in 10.0 mi East 4.6 mph - N/A   Clear
1:55 PM 72.3 °F - 45.5 °F 38% 30.18 in 10.0 mi East 5.8 mph - N/A   Clear
2:15 PM 71.4 °F - 45.3 °F 39% 30.17 in 10.0 mi ENE 5.8 mph - N/A   Clear
2:35 PM 71.2 °F - 45.3 °F 39% 30.17 in 10.0 mi ENE 5.8 mph - N/A   Clear
2:55 PM 70.5 °F - 46.2 °F 42% 30.16 in 10.0 mi East 4.6 mph - N/A   Clear
3:15 PM 69.8 °F - 47.5 °F 45% 30.16 in 10.0 mi East 3.5 mph - N/A   Clear
3:35 PM 69.4 °F - 47.1 °F 45% 30.15 in 10.0 mi East 4.6 mph - N/A   Clear
3:55 PM 68.9 °F - 48.2 °F 48% 30.15 in 10.0 mi ENE 3.5 mph - N/A   Clear
4:15 PM 68.9 °F - 48.6 °F 48% 30.16 in 10.0 mi NE 3.5 mph - N/A   Clear
4:55 PM 68.2 °F - 49.6 °F 51% 30.16 in 10.0 mi NE 3.5 mph - N/A   Clear
5:35 PM 66.7 °F - 51.1 °F 57% 30.17 in 10.0 mi Calm Calm - N/A   Clear
5:55 PM 65.8 °F - 52.3 °F 62% 30.17 in 10.0 mi Calm Calm - N/A   Scattered Clouds
6:15 PM 64.8 °F - 52.5 °F 64% 30.16 in 10.0 mi ENE 3.5 mph - N/A   Scattered Clouds
6:35 PM 64.6 °F - 52.3 °F 64% 30.17 in 10.0 mi ENE 3.5 mph - N/A   Mostly Cloudy
6:55 PM 64.8 °F - 52.3 °F 64% 30.18 in 10.0 mi NE 3.5 mph - N/A   Mostly Cloudy
7:15 PM 64.6 °F - 52.3 °F 64% 30.18 in 10.0 mi NE 3.5 mph - N/A   Mostly Cloudy
7:35 PM 64.4 °F - 52.7 °F 66% 30.18 in 10.0 mi Calm Calm - N/A   Mostly Cloudy
7:55 PM 64.2 °F - 52.9 °F 67% 30.18 in 10.0 mi NNE 3.5 mph - N/A   Overcast
8:15 PM 64.0 °F - 53.6 °F 69% 30.18 in 10.0 mi ENE 3.5 mph - N/A   Overcast
8:35 PM 64.0 °F - 53.6 °F 69% 30.18 in 10.0 mi ENE 3.5 mph - N/A   Overcast
8:55 PM 63.9 °F - 53.8 °F 70% 30.18 in 10.0 mi ENE 3.5 mph - N/A   Mostly Cloudy
9:15 PM 63.7 °F - 53.6 °F 70% 30.19 in 10.0 mi Calm Calm - N/A   Scattered Clouds
9:35 PM 63.7 °F - 53.8 °F 70% 30.20 in 10.0 mi ENE 3.5 mph - N/A   Mostly Cloudy
10:15 PM 64.0 °F - 53.6 °F 69% 30.19 in 10.0 mi East 4.6 mph - N/A   Scattered Clouds
10:35 PM 64.0 °F - 53.6 °F 69% 30.19 in 10.0 mi Calm Calm - N/A   Scattered Clouds
10:55 PM 64.2 °F - 53.6 °F 68% 30.19 in 10.0 mi East 5.8 mph - N/A   Overcast
11:15 PM 64.4 °F - 53.6 °F 68% 30.20 in 10.0 mi Calm Calm - N/A   Mostly Cloudy
11:35 PM 64.0 °F - 53.6 °F 69% 30.19 in 10.0 mi ENE 4.6 mph - N/A   Mostly Cloudy
11:55 PM 64.4 °F - 53.6 °F 68% 30.19 in 10.0 mi ENE 3.5 mph - N/A   Overcast